Weather History for Air Force Academy, CO

Change the Weather History Date:

Thursday, April 24, 2014

  Actual Average Record
Temperature  
Mean Temperature 44 °F -  
Max Temperature 60 °F 55 °F 79 °F (2012)
Min Temperature 29 °F 31 °F 13 °F (2013)
Degree Days  
Heating Degree Days 21    
Moisture  
Dew Point 26 °F    
Average Humidity 61    
Maximum Humidity 99    
Minimum Humidity 20    
Precipitation  
Precipitation 0.01 in - - ()
Sea Level Pressure  
Sea Level Pressure 29.93 in    
Wind  
Wind Speed 11 mph (East)    
Max Wind Speed 17 mph    
Max Gust Speed 24 mph    
Visibility 10 miles    
Events Rain , Snow    
Averages and records for this station are not official NWS values.
T = Trace of Precipitation, MM = Missing Value Source: NWS Daily Summary

Daily Weather History Graph

Daily Weather History Graph

Search for Another Location

Airport:

Trip Planner

Search our weather history database for the weather conditions in past years. The results will help you decide how hot, cold, wet, or windy it might be!

Date:

Astronomy

Apr. 24, 2014 Rise Set
Actual Time 6:10 AM MDT 7:45 PM MDT
Civil Twilight 5:41 AM MDT 8:13 PM MDT
Nautical Twilight 5:07 AM MDT 8:47 PM MDT
Astronomical Twilight 4:31 AM MDT 9:23 PM MDT
Moon 3:20 AM MDT (4/24) 3:06 PM MDT (4/24)
Length of Visible Light 14h 31m
Length of Day
13h 35m
Waning Crescent, 24% of the Moon is Illuminated
Apr 24
Waning Crescent
Apr 29
New
May 6
First Quarter
May 14
Full
May 21
Last Quarter

Hourly Weather History & Observations

Time (MDT) Temp. Windchill Dew Point Humidity Pressure Visibility Wind Dir Wind Speed Gust Speed Precip Events Conditions
12:38 AM 35.6 °F 26.2 °F 32.0 °F 87% 29.96 in 10.0 mi NNW 15.0 mph 24.2 mph N/A   Overcast
12:43 AM 35.6 °F 25.9 °F 32.0 °F 87% 29.96 in 10.0 mi NNW 16.1 mph - N/A   Overcast
12:48 AM 33.8 °F 23.9 °F 32.0 °F 93% 29.96 in 7.0 mi NNW 15.0 mph - N/A Snow Light Snow
12:58 AM 33.8 °F 24.8 °F 32.0 °F 93% 29.83 in 5.0 mi NNW 12.7 mph - 0.01 in Snow Light Snow
1:13 AM 33.8 °F 25.3 °F 32.0 °F 93% 29.96 in 10.0 mi NNW 11.5 mph - N/A Rain Light Rain
1:23 AM 33.8 °F 26.4 °F 32.0 °F 93% 29.96 in 10.0 mi NNW 9.2 mph - N/A Rain Light Rain
1:25 AM 33.8 °F 26.4 °F 32.0 °F 93% 29.97 in 10.0 mi NNW 9.2 mph - N/A   Scattered Clouds
1:58 AM 33.8 °F 27.0 °F 33.3 °F 98% 29.83 in 10.0 mi WNW 8.1 mph - 0.00 in   Clear
2:58 AM 33.1 °F 28.7 °F 32.7 °F 99% 29.86 in 10.0 mi NW 4.6 mph - N/A   Clear
3:58 AM 31.8 °F - 31.6 °F 99% 29.87 in 10.0 mi NE 2.3 mph - N/A   Clear
4:58 AM 29.5 °F - 29.3 °F 99% 29.90 in 10.0 mi Calm Calm - N/A   Clear
5:58 AM 29.1 °F 24.1 °F 28.6 °F 98% 29.95 in 10.0 mi North 4.6 mph - N/A   Clear
6:58 AM 29.1 °F - 27.7 °F 94% 29.97 in 10.0 mi WNW 2.3 mph - N/A   Clear
7:58 AM 34.3 °F - 26.4 °F 73% 30.02 in 10.0 mi NNE 2.3 mph - N/A   Clear
8:58 AM 40.1 °F 36.1 °F 25.0 °F 55% 30.02 in 10.0 mi South 5.8 mph - N/A   Clear
9:58 AM 43.9 °F 40.5 °F 29.3 °F 57% 30.01 in 10.0 mi South 5.8 mph - N/A   Clear
10:58 AM 48.0 °F - 27.7 °F 45% 29.99 in 10.0 mi Variable 6.9 mph - N/A   Clear
11:58 AM 52.0 °F - 23.5 °F 33% 29.94 in 10.0 mi ESE 9.2 mph - N/A   Clear
12:58 PM 54.3 °F - 20.8 °F 27% 29.91 in 10.0 mi SSE 13.8 mph 18.4 mph N/A   Partly Cloudy
1:58 PM 57.7 °F - 18.1 °F 21% 29.86 in 10.0 mi SE 12.7 mph 19.6 mph N/A   Clear
2:24 PM 59.0 °F - 19.4 °F 22% 29.94 in 10.0 mi South 16.1 mph 21.9 mph N/A   Clear
2:58 PM 59.2 °F - 17.6 °F 20% 29.85 in 10.0 mi SSE 12.7 mph 23.0 mph N/A   Clear
3:11 PM 59.0 °F - 17.6 °F 20% 29.94 in 10.0 mi ESE 12.7 mph 24.2 mph N/A   Clear
3:58 PM 57.9 °F - 16.2 °F 20% 29.85 in 10.0 mi SSE 17.3 mph 21.9 mph N/A   Clear
4:58 PM 57.6 °F - 18.1 °F 22% 29.88 in 10.0 mi SE 15.0 mph - N/A   Clear
7:58 PM 52.2 °F - 19.6 °F 28% 29.91 in 10.0 mi SSE 10.4 mph - N/A   Clear
8:58 PM 47.5 °F - 19.9 °F 34% 29.91 in 10.0 mi SSE 9.2 mph - N/A   Clear
9:58 PM 46.0 °F 42.5 °F 19.4 °F 35% 29.91 in 10.0 mi SE 6.9 mph - N/A   Clear
10:58 PM 44.4 °F 40.5 °F 21.2 °F 40% 29.91 in 10.0 mi SW 6.9 mph - N/A   Clear
11:58 PM 38.3 °F 34.8 °F 21.7 °F 51% 29.93 in 10.0 mi North 4.6 mph - N/A   Clear